Flag for Canada Weather past 2 weeks in Fort Liard, Northwest Territories, Canada

Now
3 °F

Frigid.


Feels Like: 3 °F
Forecast: 4 / 32 °F
Wind: No wind

Location: Lindberg Landing

Current Time: Feb 28, 2015 at 11:55:35 PM

Latest Report: Feb 28, 2015 at 11:00 PM


Visibility: N/A

Pressure: 30.03 "Hg

Humidity: 90%

Dew point: 1 °F

Location of Fort LiardLocation

Historic Weather in Fort Liard — Graph

°F

Fort Liard temperature yesterday

Maximum temperature yesterday: 29 °F (at 5:00 PM)
Minimum temperature yesterday: -1 °F (at 11:00 AM)
Average temperature yesterday: 14 °F

Past Weeks' High & Low Weather Summary

 TemperatureHumidityPressure
High29 °F (Feb 27, 5:00 PM)100% (Feb 28, 8:00 PM)30.35 "Hg (Feb 28, 8:00 PM)
Low-8 °F (Feb 28, 8:00 AM)54% (Feb 28, 3:00 PM)30.05 "Hg (Feb 28, 10:00 PM)
Average10 °F81%30.25 "Hg
* Reported Feb 26 1:00 PM — Feb 28 10:00 PM, Fort Liard, Weather by CustomWeather, © 2015

Note: Actual official high and low records may vary slightly from our data, if they occured in-between our weather recording intervals... More about our weather records

Advertising

Fort Liard weather history for previous 24 hours

 ConditionsComfort  
Time TempWeatherWind HumidityBarometerVisibility
10:00 PM
Sat, Feb 28
6 °FFrigid.No wind90%30.05 "HgN/A
9:00 PM8 °FFrigid.No wind92%30.08 "HgN/A
8:00 PM11 °FCold.No wind100%30.10 "HgN/A
7:00 PM15 °FCold.No wind93%30.13 "HgN/A
6:00 PM19 °FCold.No wind84%30.15 "HgN/A
5:00 PM28 °FChilly.1 mph59%30.17 "HgN/A
4:00 PM27 °FChilly.1 mph60%30.20 "HgN/A
3:00 PM26 °FChilly.1 mph54%30.23 "HgN/A
2:00 PM24 °FCold.3 mph63%30.25 "HgN/A
1:00 PM21 °FCold.3 mph70%30.28 "HgN/A
12:00 PM14 °FCold.3 mph75%30.31 "HgN/A
11:00 AM7 °FFrigid.3 mph83%30.33 "HgN/A
10:00 AM-2 °FFrigid.No wind80%30.34 "HgN/A
9:00 AM-7 °FFrigid.1 mph84%30.33 "HgN/A
8:00 AM-8 °FFrigid.1 mph86%30.34 "HgN/A
7:00 AM-7 °FFrigid.No wind86%30.35 "HgN/A
6:00 AM-5 °FFrigid.1 mph84%30.34 "HgN/A
5:00 AM-5 °FFrigid.No wind93%30.31 "HgN/A
4:00 AM-4 °FFrigid.No wind86%30.32 "HgN/A
3:00 AM-1 °FFrigid.No wind79%30.32 "HgN/A
2:00 AM-1 °FFrigid.No wind88%30.30 "HgN/A
1:00 AM-1 °FFrigid.No wind89%30.28 "HgN/A
12:00 AM1 °FFrigid.No wind97%30.26 "HgN/A
11:00 PM
Fri, Feb 27
3 °FFrigid.1 mph91%30.25 "HgN/A
Weather by CustomWeather, © 2015

See weather overviewHow to use our weather pages